Regional Weather Roundup
Issued by NWS

Home | Current Version | Previous Version | Text Only | Print | Product List | Glossary Off
Versions: 1 2 3 4 5 6 7 8 9 10 11 12 13 14 15 16 17 18 19 20 21 22 23 24 25 26 27 28 29 30 31 32 33 34 35 36 37 38 39 40 41 42 43 44 45 46 47 48 49 50

000
ASUS44 KMEG 200210
RWRTN
TENNESSEE HOURLY STATE WEATHER ROUNDUP
NATIONAL WEATHER SERVICE MEMPHIS TN
900 PM CDT TUE AUG 19 2014

TNZ002-004-019-021-049-052-054-088>092-200300-
WEST TENNESSEE

CITY           SKY/WX    TMP DP  RH WIND       PRES   REMARKS
MEMPHIS INTL   PTCLDY    85  76  74 S7        29.89R HX  94
NWS MEMPHIS      N/A     86 N/A N/A MISG        N/A
JACKSON        PTCLDY    80  73  79 SW7       29.87S
DYERSBURG      PTCLDY    81  66  61 CALM      29.86R
UNION CITY     CLEAR     75  73  94 CALM      29.85R
PARIS          CLEAR     75  70  83 SW3       29.87R
HUNTINGDON     PTCLDY    76  72  87 CALM      29.87S
LEXINGTON      CLEAR     79  73  83 SW3       29.88R
SAVANNAH       CLEAR     75  75 100 CALM      29.91R
$$

TNZ008-025-027-028-033-062-065-066-200300-
NORTH MIDDLE TENNESSEE

CITY           SKY/WX    TMP DP  RH WIND       PRES   REMARKS
NASHVILLE      MOCLDY    80  73  79 S3        29.88F
PORTLAND       CLOUDY    79  72  78 SW3       29.87
CLARKSVILLE    CLEAR     82  73  74 SW7       29.86R
SMYRNA         CLEAR     80  73  79 S5        29.88F
MURFREESBORO   PTCLDY    83  72  69 CALM      29.89R
COOKEVILLE     MOCLDY    73  73 100 CALM      29.93R
GALLATIN       PTCLDY    81  74  79 S7        29.86F
CROSSVILLE     CLEAR     71  68  90 CALM      29.99R
$$

TNZ061-075-076-078-094-096-097-200300-
SOUTH MIDDLE TENNESSEE

CITY           SKY/WX    TMP DP  RH WIND       PRES   REMARKS
LEWISBURG      PTCLDY    78  74  87 CALM      29.90R
FAYETTEVILLE   CLEAR     79  72  78 CALM      29.93R
TULLAHOMA      CLEAR     73  72  94 CALM      29.95R
WINCHESTER     CLEAR     75  73  94 CALM      29.94R
MCMINNVILLE    CLEAR     73  73 100 CALM      29.93R
COLUMBIA       CLEAR     79  77  94 S3        29.90R
SHELBYVILLE    CLEAR     75  75 100 CALM      29.92R
$$

TNZ017-018-042-046-047-200300-
NORTHEAST TENNESSEE

CITY           SKY/WX    TMP DP  RH WIND       PRES   REMARKS
TRI CITIES     CLEAR     73  66  78 CALM      29.95S
ELIZABETHTON   CLEAR     68  66  94 CALM      29.97R
$$

TNZ012-013-036-069-073-074-200300-
CENTRAL EAST TENNESSEE

CITY           SKY/WX    TMP DP  RH WIND       PRES   REMARKS
KNOXVILLE      PTCLDY    75  72  90 CALM      29.92R
OAK RIDGE      PTCLDY    74  70  87 CALM      29.94R
GATLINBURG     CLEAR     73  68  83 CALM      29.92R
MORRISTOWN     CLEAR     73  70  88 CALM      29.95S
$$

TNZ083-085-099-200300-
SOUTHEAST TENNESSEE

CITY           SKY/WX    TMP DP  RH WIND       PRES   REMARKS
CHATTANOOGA    PTCLDY    80  70  71 CALM      29.92R
$$

SKY/WX REPORTED AS FAIR MEANS FEW OR NO CLOUDS BELOW
12 THOUSAND FEET.



USA.gov is the U.S. government's official web portal to all federal, state and local government web resources and services.